Location: Northam
(31.6525°S, 116.6655°E)
Time: 00:09:29
(UTC+08:00)

Hubble Space Telescope - Pass Details

Date: 15 May 2021
Orbit: 535 x 539 km, 28.5° (Epoch: 19 June)

Event Time Altitude Azimuth Distance (km) Brightness Sun altitude
Rises 17:59:47 0° 325° (NW) 2,674 5.3 -7.8°
Reaches altitude 10° 18:02:51 10° 349° (N) 1,788 3.8 -8.4°
Maximum altitude 18:05:13 15° 24° (NNE) 1,507 3.0 -8.9°
Drops below altitude 10° 18:07:35 10° 59° (ENE) 1,796 3.0 -9.4°
Enters shadow 18:08:34 - 69° (ENE) 2,038 3.2 -9.6°
